This is the latest recevied weather packets stored in our database for station/object K4KMJ. If no packets are shown the sender has not sent any weather packets the latest 10 day(s).
| Time | Temp. | Humidity | Pressure | Rain* | Wind** | Luminosity | Snow |
|---|---|---|---|---|---|---|---|
| 1777483706 | 29.44° C | 60% | 1017.5 hPa | 0 mm | - | 286 W/m² | - |
| 1777483401 | 30° C | 60% | 1017.9 hPa | 0 mm | - | 606 W/m² | - |
| 1777483097 | 30° C | 61% | 1017.6 hPa | 0 mm | - | 777 W/m² | - |
| 1777482794 | 30° C | 64% | 1017.8 hPa | 0 mm | - | 702 W/m² | - |
| 1777482489 | 28.89° C | 64% | 1017.8 hPa | 0 mm | - | 291 W/m² | - |
| 1777482187 | 28.89° C | 64% | 1018 hPa | 0 mm | - | 821 W/m² | - |
| 1777481885 | 28.89° C | 64% | 1018 hPa | 0 mm | - | 841 W/m² | - |
| 1777481582 | 29.44° C | 64% | 1018.3 hPa | 0 mm | - | 586 W/m² | - |
| 1777481279 | 28.33° C | 64% | 1018.3 hPa | 0 mm | - | 837 W/m² | - |
| 1777480976 | 29.44° C | 63% | 1018.4 hPa | 0 mm | - | 856 W/m² | - |
| 1777480672 | 30° C | 63% | 1018.4 hPa | 0 mm | - | 863 W/m² | - |
| 1777480369 | 30° C | 66% | 1018.4 hPa | 0 mm | - | 866 W/m² | - |
| 1777480064 | 28.33° C | 68% | 1018.5 hPa | 0 mm | - | 850 W/m² | - |
| 1777479761 | 27.78° C | 67% | 1018.6 hPa | 0 mm | - | 811 W/m² | - |
| 1777479459 | 28.89° C | 67% | 1018.6 hPa | 0 mm | - | 807 W/m² | - |
| 1777479155 | 28.33° C | 67% | 1018.7 hPa | 0 mm | - | 851 W/m² | - |
| 1777478852 | 27.78° C | 67% | 1018.9 hPa | 0 mm | - | 842 W/m² | - |
| 1777478548 | 28.89° C | 66% | 1019.1 hPa | 0 mm | - | 805 W/m² | - |
| 1777478246 | 29.44° C | 67% | 1018.9 hPa | 0 mm | - | 809 W/m² | - |
| 1777477942 | 28.89° C | 69% | 1019.1 hPa | 0 mm | - | 800 W/m² | - |
| 1777477637 | 27.78° C | 70% | 1019.3 hPa | 0 mm | - | 791 W/m² | - |
| 1777477334 | 27.78° C | 69% | 1019.4 hPa | 0 mm | - | 780 W/m² | - |
| 1777477031 | 28.89° C | 70% | 1019.5 hPa | 0 mm | - | 768 W/m² | - |
| 1777476729 | 28.33° C | 71% | 1019.6 hPa | 0 mm | - | 787 W/m² | - |
| 1777476425 | 27.78° C | 71% | 1019.8 hPa | 0 mm | - | 765 W/m² | - |
* Rain latest hour (hover to see other rain measurements)
** Current wind speed in m/s (hover to see current wind gust speed)